Flag for San Marino Weather past 2 weeks in San Marino, San Marino

Now
72 °F

Scattered clouds.


Feels Like: 74 °F
Forecast: 58 / 72 °F
Wind: N/A

Location: Rimini Airport

Current Time: Jul 30, 2014 at 12:04:53 PM

Latest Report: Jul 30, 2014 at 11:15 AM


Visibility: N/A

Pressure: 29.62 "Hg

Humidity: 73%

Dew point: 63 °F

Location of San MarinoLocation

Historic Weather in San Marino — Graph

°F

San Marino temperature yesterday

Maximum temperature yesterday: 73 °F (at 2:45 PM)
Minimum temperature yesterday: 68 °F (at 9:15 AM)
Average temperature yesterday: 71 °F

Past Weeks' High & Low Weather Summary

 TemperatureHumidityPressure
High82 °F (Jul 19, 1:45 PM)100% (Jul 21, 12:15 PM)30.07 "Hg (Jul 21, 12:15 PM)
Low63 °F (Jul 19, 4:45 AM)51% (Jul 16, 6:15 PM)29.59 "Hg (Jul 30, 5:45 AM)
Average72 °F80%29.89 "Hg
* Reported Jul 15 10:15 AM — Jul 30 10:45 AM, San Marino, Weather by CustomWeather, © 2014

Note: Actual official high and low records may vary slightly from our data, if they occured in-between our weather recording intervals... More about our weather records

Advertising

San Marino weather history for previous 24 hours

 ConditionsComfort  
Time TempWeatherWind HumidityBarometerVisibility
10:45 AM
Jul 30
70 °FScattered clouds.N/A78%29.62 "HgN/A
10:15 AM68 °FScattered clouds.N/A88%29.62 "HgN/A
9:45 AM68 °FScattered clouds.N/A88%29.62 "HgN/A
9:15 AM66 °FBroken clouds.N/A88%29.62 "HgN/A
8:45 AM68 °FScattered clouds.N/A88%29.62 "HgN/A
8:15 AM68 °FScattered clouds.N/A88%29.62 "HgN/A
7:45 AM66 °FScattered clouds.N/A88%29.59 "HgN/A
7:15 AM64 °FScattered clouds.N/A94%29.59 "HgN/A
6:45 AM64 °FPassing clouds.N/A94%29.59 "HgN/A
6:15 AM66 °FPartly cloudy.N/A94%29.59 "HgN/A
5:45 AM66 °FPartly cloudy.N/A94%29.59 "HgN/A
5:15 AM66 °FLight rain. Passing clouds.N/A94%29.62 "HgN/A
4:45 AM66 °FLight rain. Passing clouds.N/A94%29.62 "HgN/A
4:15 AM66 °FLight rain. Partly cloudy.N/A94%29.65 "HgN/A
3:45 AM66 °FLight rain. Partly cloudy.N/A94%29.65 "HgN/A
3:15 AM66 °FLight rain. Partly cloudy.N/A100%29.71 "Hg4 mi
2:45 AM66 °FLight rain. Partly cloudy.N/A100%29.71 "Hg4 mi
2:15 AM66 °FLight rain. Partly cloudy.N/A100%29.71 "Hg4 mi
1:15 AM68 °FLight rain. Partly cloudy.N/A94%29.71 "Hg4 mi
12:45 AM68 °FLight rain. Partly cloudy.N/A94%29.71 "Hg4 mi
12:15 AM68 °FLight rain. Partly cloudy.N/A94%29.74 "Hg4 mi
11:45 PM
Jul 29
68 °FLight rain. Passing clouds.N/A100%29.74 "HgN/A
11:15 PM68 °FLight rain. Passing clouds.N/A94%29.74 "HgN/A
10:45 PM68 °FLight rain. Passing clouds.N/A94%29.74 "HgN/A
10:15 PM68 °FLight rain. Passing clouds.N/A94%29.74 "HgN/A
9:45 PM70 °FLight rain. Passing clouds.N/A94%29.74 "Hg5 mi
9:15 PM72 °FLight rain. Broken clouds.N/A94%29.74 "Hg5 mi
8:45 PM72 °FLight rain. Broken clouds.N/A88%29.74 "Hg5 mi
8:15 PM72 °FLight rain. Scattered clouds.N/A88%29.74 "HgN/A
7:45 PM73 °FLight rain. Scattered clouds.N/A83%29.74 "HgN/A
7:15 PM72 °FScattered clouds.N/A88%29.74 "HgN/A
6:45 PM73 °FScattered clouds.N/A83%29.74 "HgN/A
6:15 PM73 °FBroken clouds.N/A83%29.74 "HgN/A
5:45 PM73 °FScattered clouds.N/A83%29.74 "HgN/A
5:15 PM73 °FScattered clouds.N/A83%29.74 "HgN/A
4:45 PM73 °FScattered clouds.N/A83%29.74 "HgN/A
4:15 PM73 °FScattered clouds.N/A83%29.77 "HgN/A
3:45 PM73 °FScattered clouds.N/A83%29.77 "HgN/A
3:15 PM73 °FScattered clouds.N/A89%29.77 "HgN/A
2:45 PM73 °FScattered clouds.N/A89%29.77 "HgN/A
2:15 PM72 °FScattered clouds.N/A94%29.77 "HgN/A
1:45 PM72 °FScattered clouds.N/A94%29.77 "HgN/A
1:15 PM70 °FScattered clouds.N/A94%29.80 "HgN/A
12:45 PM72 °FBroken clouds.N/A88%29.80 "Hg5 mi
12:15 PM70 °FBroken clouds.N/A94%29.80 "HgN/A
Weather by CustomWeather, © 2014

See weather overviewHow to use our weather pages